Theta_e
365 364 365 356 332 327 319 320 327 323 325 331 339 336 333 337 329 322 344 346 349 350 354 359 365 366 363 365 364 364 365 365 365 365 366 365 364 363 365 367 365 365 365 363 363 362 363 361 362
367 366 356 346 323 319 319 325 322 326 333 334 338 337 335 331 342 340 339 348 351 353 353 356 367 365 366 366 366 365 363 363 365 365 366 365 364 364 363 364 363 364 364 362 360 361 363 363 362
366 363 343 337 322 315 316 325 326 329 331 334 335 341 338 334 344 344 351 351 355 354 354 362 367 367 367 366 367 367 366 365 364 363 363 363 363 363 361 363 362 362 364 361 359 360 361 363 363
356 350 345 322 316 321 322 327 329 328 333 339 339 333 342 347 346 349 352 353 353 355 359 366 368 368 366 365 365 364 365 363 362 361 361 360 359 359 361 361 361 361 363 361 359 358 362 362 360
353 340 323 321 319 324 327 328 328 327 334 335 338 334 336 346 352 352 352 352 352 354 357 360 367 368 367 364 365 363 364 363 361 359 359 361 360 360 358 357 359 360 360 361 361 358 358 359 357
333 334 317 313 318 324 329 330 329 331 332 336 337 336 337 349 349 350 353 353 354 353 353 357 365 366 365 365 365 366 362 361 362 361 361 358 356 356 356 356 356 356 359 360 360 360 359 360 359
329 325 317 318 319 322 326 332 328 327 329 332 340 333 339 344 350 352 353 353 353 353 354 356 357 362 365 367 366 363 362 361 358 359 356 353 352 350 352 355 352 355 356 358 358 359 359 358 357
330 326 318 320 319 320 329 332 333 330 330 342 343 332 334 343 350 351 354 351 352 353 352 355 358 358 360 359 365 363 361 359 359 358 352 350 348 343 344 349 350 352 354 356 356 357 357 357 357
334 322 317 319 320 324 332 329 335 337 333 335 342 340 346 348 348 349 348 347 349 347 349 351 351 358 356 361 362 362 361 357 356 355 352 349 344 343 347 348 348 349 351 356 356 356 357 357 357
326 323 320 324 327 327 330 332 333 332 332 338 339 345 346 347 346 345 343 344 343 344 346 348 349 349 354 354 361 360 358 353 353 353 349 349 348 346 345 349 352 350 351 354 357 358 358 359 353
325 321 325 327 329 331 325 325 330 329 328 336 337 340 343 345 343 343 343 342 344 346 345 347 351 353 353 353 355 359 359 356 351 345 348 348 348 350 347 346 346 349 349 350 352 352 353 352 351
320 324 326 327 330 329 327 330 328 331 332 341 342 343 342 341 341 341 342 342 344 345 347 347 353 362 356 358 352 356 358 354 349 346 350 349 346 348 346 344 339 343 343 349 353 348 356 353 351
321 323 326 329 329 329 331 330 330 331 337 341 342 342 340 340 342 343 343 344 346 345 346 347 355 361 359 354 351 353 355 354 357 351 350 348 345 348 348 350 355 352 349 351 349 351 349 349 350
324 324 324 327 327 328 329 331 331 333 338 339 339 338 339 340 341 343 343 344 346 347 346 348 351 360 360 359 351 356 356 359 356 353 355 352 350 352 348 354 352 352 352 352 351 352 352 350 351
324 319 323 324 326 328 326 323 327 334 337 336 337 337 338 338 340 340 343 344 346 345 348 349 351 355 360 363 356 357 358 358 355 350 346 356 356 351 350 351 349 350 352 352 351 350 351 351 349
320 320 315 321 323 327 325 318 329 335 335 334 335 336 337 338 339 343 344 345 349 347 352 353 349 353 357 360 363 360 360 356 352 351 352 350 348 355 353 349 349 352 351 354 351 350 348 346 346
318 313 316 317 324 326 325 320 330 335 334 333 334 335 337 338 341 343 345 347 349 348 356 353 355 352 358 364 365 364 362 361 360 359 355 357 352 352 355 356 355 351 350 350 349 351 350 345 344
313 312 315 315 320 320 322 323 330 333 333 332 334 335 337 338 340 344 344 348 353 355 359 361 359 365 367 363 367 365 362 362 360 360 359 361 360 360 358 357 357 355 349 350 353 349 349 351 349
320 316 314 317 320 317 319 324 328 332 332 331 332 334 335 337 342 345 346 348 349 355 358 361 365 370 364 361 361 354 355 362 362 361 364 360 360 362 358 357 357 357 352 352 350 351 350 348 351
318 314 314 317 318 317 319 319 326 330 329 333 332 333 335 337 340 344 346 347 348 353 359 363 366 372 367 365 365 362 362 359 360 361 361 365 364 363 361 360 357 359 354 352 354 348 347 350 347
316 314 314 315 317 318 317 314 324 328 329 330 335 335 335 337 338 341 344 347 347 354 359 364 368 371 370 370 370 368 367 363 362 365 360 362 366 365 361 360 360 361 361 353 357 355 350 345 345
312 320 317 314 312 308 317 306 316 322 322 326 329 334 333 337 340 340 343 341 342 350 357 367 370 373 373 376 369 365 362 359 362 362 365 364 364 365 365 362 361 361 359 357 357 356 354 350 346
315 320 317 315 312 312 313 309 316 323 316 322 328 330 332 337 342 339 337 340 343 348 350 361 372 375 377 373 374 370 363 363 358 359 361 361 362 366 365 363 361 358 358 359 359 358 356 357 352
321 317 316 315 312 305 311 311 315 313 314 323 331 332 333 336 340 338 340 341 346 349 353 359 368 372 373 371 373 371 367 365 362 359 358 361 359 361 364 362 363 361 360 360 360 359 359 356 355
318 313 305 304 305 304 313 311 314 319 323 324 331 332 334 338 326 331 339 342 350 351 352 360 366 369 372 370 370 370 367 366 361 362 357 356 360 359 358 364 360 362 363 362 362 359 357 356 353
315 313 306 301 303 305 313 310 314 324 325 330 335 335 335 341 341 342 344 346 352 353 357 361 366 367 368 367 368 372 371 363 365 363 360 356 359 358 358 365 364 361 361 363 360 358 358 359 356
315 312 316 309 311 306 310 315 320 324 326 331 334 336 338 341 343 345 347 349 351 351 355 359 365 368 368 367 371 369 368 366 364 366 366 360 365 361 365 364 368 365 361 359 359 356 354 355 356
317 320 310 310 303 300 308 313 313 318 323 329 333 336 339 343 344 344 346 348 346 345 349 355 360 362 363 360 364 362 366 366 367 366 366 367 366 367 367 367 365 366 361 360 356 355 354 353 354
316 312 314 313 310 304 300 308 321 319 321 327 334 339 342 342 342 342 343 346 348 347 349 349 354 355 357 355 362 364 359 359 365 363 366 366 367 370 367 367 368 366 363 361 357 355 353 353 352
317 313 314 307 307 311 308 310 321 323 320 318 328 339 340 342 340 342 344 347 348 350 352 349 351 351 348 350 353 351 355 355 356 357 360 363 366 370 366 362 359 364 364 365 363 360 360 354 350
Wind_Speed
10 13 10 2 2 2 7 5 13 9 15 15 26 17 20 19 9 10 9 17 14 16 14 11 9 14 14 13 14 13 13 12 11 10 11 10 12 12 12 12 13 14 14 15 14 13 13 13 13
12 17 5 3 4 3 6 13 11 10 21 6 20 22 24 24 21 16 13 17 16 11 14 14 12 15 14 14 12 13 13 12 10 9 9 10 10 10 10 11 10 12 13 13 13 12 13 12 11
14 17 8 6 2 10 10 4 23 24 12 13 15 17 11 10 13 19 14 23 16 14 16 16 16 15 14 14 12 12 12 10 10 9 8 9 9 9 8 10 9 10 14 13 12 10 11 11 11
9 8 7 8 11 12 11 8 14 8 11 22 18 16 11 9 10 18 19 13 12 8 19 16 17 15 15 14 13 12 12 12 9 9 10 10 10 9 10 8 9 8 11 12 11 9 10 10 9
13 9 2 10 15 10 11 13 15 15 20 20 19 20 11 19 20 19 16 15 10 13 17 16 16 14 13 13 12 12 11 11 11 13 15 15 15 13 10 7 6 9 10 8 11 10 7 9 9
9 6 10 12 14 12 21 15 10 19 16 21 21 16 10 20 20 16 17 14 14 14 17 15 15 14 13 13 12 12 14 14 16 17 18 17 16 13 12 7 4 5 6 6 7 7 8 6 6
12 4 15 15 11 13 12 16 13 13 12 18 18 19 10 15 18 17 17 15 7 21 16 14 14 12 13 12 12 13 14 17 18 17 14 15 13 10 9 9 5 2 3 5 5 6 5 5 6
8 6 17 15 8 13 11 12 15 11 8 23 19 10 17 15 17 16 18 8 9 11 18 13 13 12 11 10 13 15 15 17 18 18 17 11 11 3 3 5 2 1 2 3 4 5 6 8 9
10 11 8 18 16 17 13 11 9 13 9 3 15 22 21 19 15 15 15 18 14 13 15 17 15 13 12 12 11 14 18 17 16 14 14 10 3 4 6 7 6 5 3 5 6 7 8 10 12
5 12 3 13 17 13 7 10 12 16 10 21 23 24 20 19 15 16 12 11 9 12 13 14 16 13 14 12 13 12 12 8 6 5 8 4 5 5 6 5 9 8 8 9 10 11 11 12 8
9 10 12 13 12 13 20 18 13 16 15 18 20 21 18 20 13 15 13 13 8 10 6 11 8 10 11 11 8 5 5 5 3 3 6 3 3 3 3 4 4 2 8 5 9 9 7 10 8
11 6 13 9 10 5 21 17 17 17 16 20 20 19 17 15 16 15 17 14 7 9 11 13 12 9 10 7 2 9 6 6 5 4 5 5 4 5 5 5 6 6 5 7 7 4 4 5 7
10 11 13 7 14 5 16 15 17 17 18 20 19 18 17 15 20 18 9 11 13 11 9 7 9 10 7 8 6 5 5 6 5 6 8 6 5 5 5 6 4 4 5 5 6 5 5 4 7
6 7 16 12 10 7 13 15 14 16 18 18 17 16 16 17 19 16 16 13 14 10 11 12 10 9 5 9 12 5 4 5 6 5 6 9 5 4 4 4 5 4 4 6 6 5 4 4 4
9 7 9 14 9 9 16 13 16 17 17 17 16 13 12 10 13 12 14 13 13 10 13 11 9 12 8 6 8 6 5 2 3 4 3 5 6 6 5 5 6 4 4 7 6 7 6 4 5
15 11 8 8 13 11 22 11 16 17 15 15 14 12 12 14 15 12 14 12 16 9 9 9 11 13 10 7 5 5 5 5 6 5 6 7 6 7 5 5 6 6 5 5 5 5 6 5 5
13 4 11 11 9 27 17 12 17 17 15 14 13 12 11 12 14 12 14 14 17 17 10 12 9 10 13 8 6 6 7 6 6 4 7 9 10 9 8 6 6 7 4 3 6 5 6 4 6
13 7 1 10 11 6 13 16 19 18 18 16 16 13 13 13 13 13 14 15 21 16 12 9 9 7 8 8 5 4 5 5 5 3 5 8 6 8 7 7 8 5 4 6 7 5 3 5 5
17 18 11 10 10 3 6 20 19 17 18 16 16 16 16 16 15 14 11 14 11 16 14 12 7 8 7 6 6 4 5 5 4 5 9 8 7 8 7 6 7 6 5 6 2 2 5 5 3
12 9 4 7 4 7 6 11 17 19 15 20 15 17 17 18 16 16 12 12 11 13 15 14 11 9 7 6 6 5 4 6 6 7 7 6 9 8 7 8 7 5 4 6 7 5 2 4 3
10 9 2 7 8 10 8 11 21 21 16 12 20 19 19 20 19 17 12 9 6 7 10 12 11 11 9 8 4 4 4 2 4 4 5 7 8 9 8 8 8 5 4 6 7 7 8 4 3
10 12 7 2 10 11 10 11 8 14 6 8 12 21 20 18 20 16 10 12 10 6 6 7 10 9 9 8 7 6 4 4 5 6 6 6 9 9 10 9 8 6 6 8 6 7 8 5 4
3 6 12 6 10 16 15 5 5 23 24 28 12 16 14 10 22 19 12 12 13 10 9 7 9 7 3 8 6 4 7 6 7 7 5 3 4 6 8 8 7 6 6 8 8 7 8 5 5
8 6 11 11 12 13 5 1 12 7 18 14 16 8 11 16 17 16 13 12 9 11 9 12 10 6 5 3 5 5 6 6 5 5 4 4 5 5 8 8 9 9 9 9 7 8 9 7 6
11 13 11 9 7 10 8 5 6 20 27 32 22 8 7 29 31 19 17 15 9 5 7 15 11 6 4 3 3 3 4 4 6 5 6 7 4 5 7 9 9 9 10 10 7 9 10 8 8
14 17 10 7 8 8 15 10 6 12 25 25 11 7 2 22 28 23 12 9 9 10 11 13 9 8 6 3 2 3 4 4 4 4 5 5 5 3 7 6 6 9 10 8 9 7 7 8 8
12 17 17 14 20 13 9 8 12 14 9 12 12 12 9 13 13 12 11 13 13 9 12 10 9 7 5 6 2 2 2 4 4 5 5 5 5 6 5 4 4 6 9 10 10 9 11 10 8
18 10 12 8 7 8 9 11 7 18 16 5 11 13 14 15 15 13 15 10 10 12 10 10 9 6 3 3 3 1 2 3 2 4 5 4 5 5 6 5 6 7 8 9 10 10 10 9 9
11 9 14 17 6 1 2 1 8 21 9 7 8 13 15 12 13 12 12 11 10 10 9 9 7 4 3 7 3 2 2 5 3 5 4 5 6 6 5 6 5 6 7 7 6 8 11 10 10
16 19 18 9 9 7 6 1 10 14 21 29 35 14 14 10 16 16 15 15 12 10 9 8 11 10 10 11 10 11 9 10 11 10 9 7 5 3 4 6 7 6 6 6 6 7 7 8 8
Wind_Direction
198 195 209 284 351 101 9 165 98 186 73 63 55 75 65 40 88 140 152 167 175 176 155 161 153 130 125 122 120 122 116 113 114 112 106 103 108 110 115 115 116 115 115 113 113 112 112 119 115
225 224 215 153 99 86 58 29 58 37 80 54 92 81 67 70 83 118 130 192 221 144 146 140 145 128 132 125 130 129 125 120 121 118 116 110 106 106 110 116 116 118 113 113 115 119 121 118 114
251 261 258 205 66 44 61 143 53 341 61 78 92 59 70 105 78 144 166 184 160 143 134 123 129 133 134 132 139 133 130 122 110 113 103 98 96 92 95 110 112 121 121 120 120 123 116 109 110
241 215 231 56 58 50 58 83 117 144 24 89 119 85 76 84 109 126 128 150 123 125 115 127 133 137 135 138 135 131 119 122 120 95 83 73 74 70 72 100 108 121 121 126 124 128 122 115 114
241 254 93 81 65 56 36 46 65 77 63 63 79 85 83 112 127 128 125 128 109 116 127 132 136 136 136 134 128 125 121 113 104 97 96 84 70 54 69 73 99 119 115 124 133 135 131 138 136
268 237 64 55 47 23 86 245 95 96 102 108 103 92 99 116 121 141 129 143 128 145 138 135 131 135 137 132 131 128 120 122 115 108 102 87 76 59 34 43 85 90 109 122 127 133 150 147 157
262 99 90 90 64 46 31 26 53 69 74 104 121 112 125 123 139 140 154 156 146 140 137 136 140 139 139 138 138 130 125 120 123 118 114 117 104 78 46 4 358 31 116 142 146 161 171 193 205
72 74 81 96 97 91 71 53 43 78 63 125 136 130 145 147 144 144 123 130 220 153 144 150 141 152 154 153 144 132 132 137 130 130 127 123 110 84 256 337 330 302 206 176 181 199 204 217 227
135 62 24 83 74 83 85 95 90 69 74 173 112 133 138 149 151 125 146 173 180 146 144 147 154 157 160 142 140 143 138 135 135 138 136 144 143 198 228 263 278 283 284 263 229 227 225 237 242
205 101 133 91 86 95 133 127 144 105 105 84 93 109 135 149 141 143 157 148 145 142 152 149 157 168 165 156 154 151 145 161 141 145 133 151 168 197 222 242 271 269 269 265 252 238 237 245 249
61 103 98 54 86 86 67 48 82 106 115 113 123 129 154 142 146 159 144 166 155 163 143 166 131 168 136 132 168 159 159 135 136 167 141 181 173 219 241 261 275 344 277 256 243 232 235 239 241
92 46 81 97 99 78 95 76 71 78 97 118 127 143 142 162 161 158 154 149 161 160 174 137 149 109 138 147 144 159 158 159 168 168 180 180 213 201 221 231 232 255 261 238 248 254 272 273 281
129 138 111 151 102 110 82 92 98 100 108 118 141 150 163 162 167 165 129 167 164 162 158 154 134 127 142 104 44 325 157 163 203 176 189 215 223 227 212 227 224 229 260 272 238 245 214 258 270
120 207 139 130 131 126 127 130 115 118 123 132 152 162 173 165 163 151 162 160 153 167 168 156 162 137 182 138 147 194 169 188 186 209 187 204 249 269 276 271 243 232 252 275 286 276 277 252 280
181 157 147 140 171 103 59 342 125 134 140 149 151 171 133 149 128 160 162 147 155 179 165 160 169 158 169 183 149 164 181 168 201 218 189 212 222 239 229 241 260 282 250 249 271 274 263 254 267
231 216 145 165 146 126 102 264 135 149 148 149 161 147 158 148 151 163 154 152 94 325 155 169 184 164 171 193 163 171 168 200 213 193 209 211 241 250 238 230 250 236 242 239 239 257 263 244 250
220 200 205 154 184 154 145 160 160 162 156 158 158 157 164 170 151 165 152 152 143 189 220 176 185 174 164 181 170 172 195 204 232 221 197 201 207 225 242 234 242 237 225 227 246 236 255 252 241
279 150 254 172 161 217 148 166 160 175 169 169 171 161 168 178 165 172 166 157 160 175 159 186 163 169 160 159 169 223 155 222 244 217 243 204 219 215 214 245 231 227 224 215 223 218 272 268 284
229 209 193 130 128 252 225 158 170 186 180 170 177 168 182 186 176 161 186 173 152 159 163 172 187 165 159 176 179 184 225 201 214 235 226 216 216 224 210 235 258 203 195 234 297 222 229 266 260
268 239 76 104 165 221 205 203 174 179 195 176 185 172 191 180 164 155 190 184 170 165 164 169 177 163 186 195 197 192 177 225 216 209 227 219 212 226 228 234 248 218 201 211 220 197 219 248 225
237 264 242 160 188 256 239 225 163 176 177 199 178 184 186 178 165 163 181 165 194 192 157 163 172 172 185 209 217 166 177 240 247 222 224 223 220 209 202 243 230 249 243 221 213 213 206 219 198
243 328 296 228 217 215 235 282 159 140 178 204 207 193 192 173 158 145 163 178 208 165 157 157 157 165 183 195 232 178 231 237 239 239 209 206 203 210 199 201 244 224 228 237 219 219 219 174 222
67 250 271 229 279 277 198 242 138 78 49 297 232 217 226 156 162 137 164 169 186 158 177 145 135 138 202 183 225 253 220 231 236 244 268 220 213 225 214 200 208 234 237 241 233 235 208 197 208
273 244 240 247 249 259 321 259 112 139 162 279 282 218 247 193 124 105 140 163 173 191 151 126 109 117 142 209 209 226 276 284 291 308 309 259 228 222 228 221 211 216 228 243 231 232 234 218 230
246 246 232 222 308 267 230 238 137 161 157 203 243 218 236 102 116 219 190 174 176 125 129 114 118 134 149 180 229 249 268 276 302 300 256 263 208 204 235 208 221 220 222 229 233 240 233 220 221
217 235 251 279 227 323 289 61 197 201 197 187 166 161 120 143 155 189 166 171 112 103 87 93 107 131 128 104 26 9 331 301 237 251 353 326 329 285 288 194 213 236 239 228 235 238 238 230 227
248 261 268 269 235 230 176 112 141 337 156 146 147 131 126 88 102 116 132 117 101 110 97 103 96 91 106 122 130 262 251 249 294 320 319 288 322 338 357 309 265 254 252 245 241 242 242 234 231
237 276 277 276 271 285 75 95 111 37 324 326 148 136 128 109 96 90 89 110 124 105 106 97 88 81 78 322 179 209 227 204 241 247 245 253 264 276 287 279 273 280 274 262 250 259 249 248 243
210 243 256 270 278 45 64 173 162 185 193 343 238 123 110 119 111 118 101 96 106 119 129 117 100 74 65 53 29 280 287 271 231 256 261 236 249 247 267 284 258 274 283 279 280 259 266 241 251
240 219 235 245 249 68 12 131 248 210 163 175 255 133 141 133 142 146 124 99 78 57 57 60 40 31 15 6 2 13 7 5 357 344 340 310 272 312 292 269 263 236 236 246 254 264 274 282 271